This is the latest recevied weather packets stored in our database for station/object SP2FH-13. If no packets are shown the sender has not sent any weather packets the latest 10 day(s).
| Time | Temp. | Humidity | Pressure | Rain* | Wind** | Luminosity | Snow |
|---|---|---|---|---|---|---|---|
| 1777930907 | 16.67° C | 64% | 1000.8 hPa | - | - | - | - |
| 1777930004 | 16.11° C | 66% | 1000.8 hPa | - | - | - | - |
| 1777929401 | 16.11° C | 67% | 1000.8 hPa | - | - | - | - |
| 1777929100 | 16.11° C | 67% | 1000.7 hPa | - | - | - | - |
| 1777928799 | 16.11° C | 68% | 1000.7 hPa | - | - | - | - |
| 1777926993 | 16.67° C | 59% | 1000.7 hPa | - | - | - | - |
| 1777926692 | 17.22° C | 60% | 1000.7 hPa | - | - | - | - |
| 1777925788 | 16.67° C | 62% | 1000.6 hPa | - | - | - | - |
| 1777925186 | 16.67° C | 60% | 1000.6 hPa | - | - | - | - |
| 1777924885 | 17.22° C | 58% | 1000.6 hPa | - | - | - | - |
| 1777924583 | 17.78° C | 57% | 1000.5 hPa | - | - | - | - |
| 1777924281 | 17.22° C | 57% | 1000.6 hPa | - | - | - | - |
| 1777923076 | 18.33° C | 55% | 1000.5 hPa | - | - | - | - |
| 1777922474 | 18.89° C | 53% | 1000.6 hPa | - | - | - | - |
| 1777922172 | 19.44° C | 52% | 1000.6 hPa | - | - | - | - |
| 1777917958 | 20.56° C | 48% | 1000.3 hPa | - | - | 5 W/m² | - |
| 1777917656 | 21.11° C | 47% | 1000.2 hPa | - | - | 6 W/m² | - |
| 1777915548 | 21.67° C | 45% | 1000.1 hPa | - | - | 29 W/m² | - |
| 1777914345 | 22.22° C | 43% | 1000 hPa | - | - | 47 W/m² | - |
| 1777914044 | 22.78° C | 42% | 1000 hPa | - | - | 48 W/m² | - |
| 1777913743 | 22.78° C | 41% | 1000 hPa | - | - | 51 W/m² | - |
| 1777913141 | 22.78° C | 42% | 1000 hPa | - | - | 55 W/m² | - |
| 1777911635 | 23.33° C | 41% | 999.9 hPa | - | - | 88 W/m² | - |
| 1777911334 | 23.33° C | 41% | 999.9 hPa | - | - | 99 W/m² | - |
| 1777911033 | 23.89° C | 41% | 1000 hPa | - | - | 108 W/m² | - |
* Rain since midnight (hover to see other rain measurements)
** Current wind speed in m/s (hover to see current wind gust speed)